Regional Weather Roundup
Issued by NWS

Home | Current Version | Previous Version | Graphics & Text | Print | Product List | Glossary On
Versions: 1 2 3 4 5 6 7 8 9 10 11 12 13 14 15 16 17 18 19 20 21 22 23 24 25 26 27 28 29 30 31 32 33 34 35 36 37 38 39 40 41 42 43 44 45 46 47 48 49 50
000
ASUS43 KLMK 130710
RWRKY
KENTUCKY REGIONAL WEATHER ROUNDUP
NATIONAL WEATHER SERVICE LOUISVILLE KY
200 AM EST WED DEC 13 2017

NOTE "FAIR" INDICATES FEW OR NO CLOUDS BELOW 12,000 FEET
WITH NO SIGNIFICANT WEATHER AND/OR OBSTRUCTIONS TO VISIBILITY.

KYZ001>023-026-027-061>063-070>075-130800-
WESTERN AND SOUTH CENTRAL KENTUCKY

CITY           SKY/WX    TMP DP  RH WIND       PRES   REMARKS
PADUCAH        PTCLDY    20  14  77 SW3       30.07F
HENDERSON      CLOUDY    22  15  75 S3        30.06F
OWENSBORO      CLOUDY    22  14  71 S3        30.06F
HOPKINSVILLE   PTCLDY    24  11  56 CALM      30.07F
BOWLING GREEN  CLEAR     21  12  68 S3        30.09F
GLASGOW        CLOUDY    18  13  80 CALM      30.08R
$$

KYZ024-025-028>034-038-045-046-053-130800-
NORTH CENTRAL KENTUCKY

CITY           SKY/WX    TMP DP  RH WIND       PRES   REMARKS
LOUISVILLE/SDF CLEAR     25   8  48 SW9       30.03F WCI  15
LOUISVILLE/LOU PTCLDY    22  10  60 SW6       30.03F WCI  14
FORT KNOX      CLEAR     19   8  61 CALM      30.01F
$$

KYZ035>037-039>044-047>052-055>060-089>105-130800-
NORTHEAST KENTUCKY

CITY           SKY/WX    TMP DP  RH WIND       PRES   REMARKS
LEXINGTON      CLEAR     17   8  67 SW8       30.00F WCI   7
COVINGTON      PTCLDY    18   9  68 W7        29.97F WCI   9
FRANKFORT      CLEAR     18   7  62 W5        30.00F WCI  11
$$

KYZ054-064>069-076>088-106>120-130800-
SOUTHEAST KENTUCKY

CITY           SKY/WX    TMP DP  RH WIND       PRES   REMARKS
JACKSON        CLEAR     20   6  55 W7        29.97S WCI  11
LONDON         CLEAR     20   9  62 W5        30.02S WCI  13
SOMERSET       CLEAR     21   9  58 W7        30.07S WCI  13
MIDDLESBORO    CLEAR     24   8  51 CALM      30.03S
MONTICELLO     SUNNY     20  11  68 NW3       30.08S
$$





USA.gov is the U.S. government's official web portal to all federal, state and local government web resources and services.